Location: Newark
(48.6461°N, 4.3644°W)
Time: 06:16:48
(UTC+00:00)

Transit 4A - Pass Details

Date: 29 January 2020
Orbit: 872 x 973 km, 66.8° (Epoch: 27 February)

Event Time Altitude Azimuth Distance (km) Brightness Sun altitude
Rises 06:39:40 0° 223° (SW) 3,535 10.6 -12.0°
Reaches altitude 10° 06:42:13 10° 226° (SW) 2,582 9.9 -11.6°
Maximum altitude 06:48:10 67° 309° (NW) 967 7.8 -10.6°
Drops below altitude 10° 06:54:01 10° 32° (NNE) 2,543 10.4 -9.7°
Sets 06:56:31 0° 35° (NE) 3,478 11.1 -9.3°
